owner,sensor,date,latitude,longitude,vertical_datum,wind_speed,wind_to_direction,wind_speed_of_gust,qcFlag 
TCOON,ioos:station:TCOON:057:1,2009-04-01T00:00:00Z,28.4460,-96.3961,0.0,7.7,10.0,8.4,'11111222,11111222,11111222' 
TCOON,ioos:station:TCOON:057:1,2009-04-01T01:00:00Z,28.4460,-96.3961,0.0,6.4,21.0,6.9,'11111222,11111222,11111222' 
TCOON,ioos:station:TCOON:057:1,2009-04-01T03:00:00Z,28.4460,-96.3961,0.0,5.6,20.0,6.0,'11111222,11111222,11111222' 
TCOON,ioos:station:TCOON:057:1,2009-04-01T04:00:00Z,28.4460,-96.3961,0.0,6.9,32.0,7.6,'11111222,11111222,11111222' 
TCOON,ioos:station:TCOON:057:1,2009-04-01T05:00:00Z,28.4460,-96.3961,0.0,8.1,41.0,8.9,'11111222,11111222,11111222' 
TCOON,ioos:station:TCOON:057:1,2009-04-01T06:00:00Z,28.4460,-96.3961,0.0,9.7,44.0,11.0,'11111222,11111222,11111222' 
TCOON,ioos:station:TCOON:057:1,2009-04-01T07:00:00Z,28.4460,-96.3961,0.0,9.3,47.0,11.0,'11111222,11111222,11111222' 
TCOON,ioos:station:TCOON:057:1,2009-04-01T08:00:00Z,28.4460,-96.3961,0.0,10.4,68.0,12.1,'11111222,11111222,11111222' 
TCOON,ioos:station:TCOON:057:1,2009-04-01T09:00:00Z,28.4460,-96.3961,0.0,8.0,75.0,9.5,'11111222,11111222,11111222' 
TCOON,ioos:station:TCOON:057:1,2009-04-01T10:00:00Z,28.4460,-96.3961,0.0,9.5,73.0,11.2,'11111222,11111222,11111222' 
TCOON,ioos:station:TCOON:057:1,2009-04-01T11:00:00Z,28.4460,-96.3961,0.0,9.0,73.0,11.0,'11111222,11111222,11111222' 
TCOON,ioos:station:TCOON:057:1,2009-04-01T12:00:00Z,28.4460,-96.3961,0.0,9.5,84.0,10.7,'11111222,11111222,11111222' 
TCOON,ioos:station:TCOON:057:1,2009-04-01T13:00:00Z,28.4460,-96.3961,0.0,9.1,90.0,10.4,'11111222,11111222,11111222' 
TCOON,ioos:station:TCOON:057:1,2009-04-01T14:00:00Z,28.4460,-96.3961,0.0,9.0,110.0,11.3,'11111222,11111222,11111222' 
TCOON,ioos:station:TCOON:057:1,2009-04-01T15:00:00Z,28.4460,-96.3961,0.0,8.8,110.0,10.2,'11111222,11111222,11111222' 
TCOON,ioos:station:TCOON:057:1,2009-04-01T16:00:00Z,28.4460,-96.3961,0.0,9.9,105.0,11.3,'11111222,11111222,11111222' 
TCOON,ioos:station:TCOON:057:1,2009-04-01T17:00:00Z,28.4460,-96.3961,0.0,9.4,119.0,11.0,'11111222,11111222,11111222' 
TCOON,ioos:station:TCOON:057:1,2009-04-01T18:00:00Z,28.4460,-96.3961,0.0,10.3,116.0,11.5,'11111222,11111222,11111222' 
TCOON,ioos:station:TCOON:057:1,2009-04-01T19:00:00Z,28.4460,-96.3961,0.0,9.9,133.0,11.6,'11111222,11111222,11111222' 
TCOON,ioos:station:TCOON:057:1,2009-04-01T20:00:00Z,28.4460,-96.3961,0.0,7.1,122.0,8.4,'11111222,11111222,11111222' 
TCOON,ioos:station:TCOON:057:1,2009-04-01T21:00:00Z,28.4460,-96.3961,0.0,8.9,134.0,10.1,'11111222,11111222,11111222' 
TCOON,ioos:station:TCOON:057:1,2009-04-01T22:00:00Z,28.4460,-96.3961,0.0,5.3,107.0,6.4,'11111222,11111222,11111222' 
TCOON,ioos:station:TCOON:057:1,2009-04-01T23:00:00Z,28.4460,-96.3961,0.0,3.2,92.0,3.8,'11111222,11111222,11111222' 
TCOON,ioos:station:TCOON:057:1,2009-04-02T00:00:00Z,28.4460,-96.3961,0.0,5.0,100.0,5.7,'11111222,11111222,11111222' 
TCOON,ioos:station:TCOON:057:1,2009-04-02T01:00:00Z,28.4460,-96.3961,0.0,6.1,86.0,6.6,'11111222,11111222,11111222' 
TCOON,ioos:station:TCOON:057:1,2009-04-02T02:00:00Z,28.4460,-96.3961,0.0,5.4,79.0,6.0,'11111222,11111222,11111222' 
TCOON,ioos:station:TCOON:057:1,2009-04-02T03:00:00Z,28.4460,-96.3961,0.0,8.1,106.0,8.8,'11111222,11111222,11111222' 
TCOON,ioos:station:TCOON:057:1,2009-04-02T04:00:00Z,28.4460,-96.3961,0.0,6.4,120.0,7.5,'11111222,11111222,11111222' 
TCOON,ioos:station:TCOON:057:1,2009-04-02T05:00:00Z,28.4460,-96.3961,0.0,7.9,122.0,8.7,'11111222,11111222,11111222' 
TCOON,ioos:station:TCOON:057:1,2009-04-02T06:00:00Z,28.4460,-96.3961,0.0,2.8,136.0,3.4,'11111222,11111222,11111222' 
TCOON,ioos:station:TCOON:057:1,2009-04-02T07:00:00Z,28.4460,-96.3961,0.0,5.4,222.0,6.6,'11111222,11111222,11111222' 
TCOON,ioos:station:TCOON:057:1,2009-04-02T08:00:00Z,28.4460,-96.3961,0.0,7.6,184.0,8.7,'11111222,11111222,11111222' 
TCOON,ioos:station:TCOON:057:1,2009-04-02T09:00:00Z,28.4460,-96.3961,0.0,5.9,193.0,7.0,'11111222,11111222,11111222' 
TCOON,ioos:station:TCOON:057:1,2009-04-02T10:00:00Z,28.4460,-96.3961,0.0,4.6,204.0,5.6,'11111222,11111222,11111222' 
TCOON,ioos:station:TCOON:057:1,2009-04-02T11:00:00Z,28.4460,-96.3961,0.0,4.1,207.0,5.2,'11111222,11111222,11111222' 
TCOON,ioos:station:TCOON:057:1,2009-04-02T12:00:00Z,28.4460,-96.3961,0.0,5.9,196.0,7.0,'11111222,11111222,11111222' 
TCOON,ioos:station:TCOON:057:1,2009-04-02T13:00:00Z,28.4460,-96.3961,0.0,6.5,230.0,7.7,'11111222,11111222,11111222' 
TCOON,ioos:station:TCOON:057:1,2009-04-02T14:00:00Z,28.4460,-96.3961,0.0,5.1,228.0,5.7,'11111222,11111222,11111222' 
TCOON,ioos:station:TCOON:057:1,2009-04-02T15:00:00Z,28.4460,-96.3961,0.0,8.1,343.0,9.1,'11111222,11111222,11111222' 
TCOON,ioos:station:TCOON:057:1,2009-04-02T16:00:00Z,28.4460,-96.3961,0.0,7.1,322.0,8.4,'11111222,11111222,11111222' 
TCOON,ioos:station:TCOON:057:1,2009-04-02T17:00:00Z,28.4460,-96.3961,0.0,9.9,322.0,11.5,'11111222,11111222,11111222' 
TCOON,ioos:station:TCOON:057:1,2009-04-02T18:00:00Z,28.4460,-96.3961,0.0,12.6,309.0,17.0,'11111222,11111222,11111222' 
TCOON,ioos:station:TCOON:057:1,2009-04-02T19:00:00Z,28.4460,-96.3961,0.0,11.1,326.0,13.1,'11111222,11111222,11111222' 
TCOON,ioos:station:TCOON:057:1,2009-04-02T20:00:00Z,28.4460,-96.3961,0.0,9.6,326.0,11.7,'11111222,11111222,11111222' 
TCOON,ioos:station:TCOON:057:1,2009-04-02T21:00:00Z,28.4460,-96.3961,0.0,11.6,323.0,15.3,'11111222,11111222,11111222' 
TCOON,ioos:station:TCOON:057:1,2009-04-02T22:00:00Z,28.4460,-96.3961,0.0,9.0,326.0,10.3,'11111222,11111222,11111222' 
TCOON,ioos:station:TCOON:057:1,2009-04-02T23:00:00Z,28.4460,-96.3961,0.0,9.2,320.0,10.1,'11111222,11111222,11111222' 
TCOON,ioos:station:TCOON:057:1,2009-04-03T00:00:00Z,28.4460,-96.3961,0.0,10.0,312.0,12.4,'11111222,11111222,11111222' 
TCOON,ioos:station:TCOON:057:1,2009-04-03T01:00:00Z,28.4460,-96.3961,0.0,7.9,334.0,9.1,'11111222,11111222,11111222' 
TCOON,ioos:station:TCOON:057:1,2009-04-03T02:00:00Z,28.4460,-96.3961,0.0,6.3,338.0,7.2,'11111222,11111222,11111222' 
TCOON,ioos:station:TCOON:057:1,2009-04-03T03:00:00Z,28.4460,-96.3961,0.0,5.3,350.0,6.3,'11111222,11111222,11111222' 
TCOON,ioos:station:TCOON:057:1,2009-04-03T04:00:00Z,28.4460,-96.3961,0.0,7.0,1.0,8.2,'11111222,11111222,11111222' 
TCOON,ioos:station:TCOON:057:1,2009-04-03T05:00:00Z,28.4460,-96.3961,0.0,8.9,11.0,10.4,'11111222,11111222,11111222' 
TCOON,ioos:station:TCOON:057:1,2009-04-03T06:00:00Z,28.4460,-96.3961,0.0,9.9,19.0,11.4,'11111222,11111222,11111222' 
TCOON,ioos:station:TCOON:057:1,2009-04-03T07:00:00Z,28.4460,-96.3961,0.0,9.5,28.0,11.1,'11111222,11111222,11111222' 
TCOON,ioos:station:TCOON:057:1,2009-04-03T08:00:00Z,28.4460,-96.3961,0.0,11.4,28.0,13.3,'11111222,11111222,11111222' 
TCOON,ioos:station:TCOON:057:1,2009-04-03T09:00:00Z,28.4460,-96.3961,0.0,8.7,45.0,10.2,'11111222,11111222,11111222' 
TCOON,ioos:station:TCOON:057:1,2009-04-03T10:00:00Z,28.4460,-96.3961,0.0,6.0,39.0,6.9,'11111222,11111222,11111222' 
TCOON,ioos:station:TCOON:057:1,2009-04-03T11:00:00Z,28.4460,-96.3961,0.0,6.9,45.0,7.7,'11111222,11111222,11111222' 
TCOON,ioos:station:TCOON:057:1,2009-04-03T12:00:00Z,28.4460,-96.3961,0.0,4.9,46.0,5.4,'11111222,11111222,11111222' 
TCOON,ioos:station:TCOON:057:1,2009-04-03T13:00:00Z,28.4460,-96.3961,0.0,5.5,48.0,6.5,'11111222,11111222,11111222' 
TCOON,ioos:station:TCOON:057:1,2009-04-03T14:00:00Z,28.4460,-96.3961,0.0,4.4,51.0,5.3,'11111222,11111222,11111222' 
TCOON,ioos:station:TCOON:057:1,2009-04-03T15:00:00Z,28.4460,-96.3961,0.0,3.7,60.0,4.4,'11111222,11111222,11111222' 
TCOON,ioos:station:TCOON:057:1,2009-04-03T16:00:00Z,28.4460,-96.3961,0.0,3.5,45.0,4.0,'11111222,11111222,11111222' 
TCOON,ioos:station:TCOON:057:1,2009-04-03T17:00:00Z,28.4460,-96.3961,0.0,3.6,50.0,4.0,'11111222,11111222,11111222' 
TCOON,ioos:station:TCOON:057:1,2009-04-03T18:00:00Z,28.4460,-96.3961,0.0,4.2,69.0,4.9,'11111222,11111222,11111222' 
TCOON,ioos:station:TCOON:057:1,2009-04-03T19:00:00Z,28.4460,-96.3961,0.0,5.4,111.0,6.1,'11111222,11111222,11111222' 
TCOON,ioos:station:TCOON:057:1,2009-04-03T20:00:00Z,28.4460,-96.3961,0.0,6.2,119.0,7.3,'11111222,11111222,11111222' 
TCOON,ioos:station:TCOON:057:1,2009-04-03T21:00:00Z,28.4460,-96.3961,0.0,6.6,126.0,7.5,'11111222,11111222,11111222' 
TCOON,ioos:station:TCOON:057:1,2009-04-03T22:00:00Z,28.4460,-96.3961,0.0,6.3,122.0,7.7,'11111222,11111222,11111222' 
TCOON,ioos:station:TCOON:057:1,2009-04-03T23:00:00Z,28.4460,-96.3961,0.0,6.9,110.0,8.1,'11111222,11111222,11111222' 
TCOON,ioos:station:TCOON:057:1,2009-04-04T00:00:00Z,28.4460,-96.3961,0.0,8.0,125.0,9.0,'11111222,11111222,11111222' 
TCOON,ioos:station:TCOON:057:1,2009-04-04T01:00:00Z,28.4460,-96.3961,0.0,7.5,130.0,8.7,'11111222,11111222,11111222' 
TCOON,ioos:station:TCOON:057:1,2009-04-04T02:00:00Z,28.4460,-96.3961,0.0,5.9,123.0,6.9,'11111222,11111222,11111222' 
TCOON,ioos:station:TCOON:057:1,2009-04-04T03:00:00Z,28.4460,-96.3961,0.0,6.1,118.0,6.8,'11111222,11111222,11111222' 
TCOON,ioos:station:TCOON:057:1,2009-04-04T04:00:00Z,28.4460,-96.3961,0.0,4.6,120.0,5.3,'11111222,11111222,11111222' 
TCOON,ioos:station:TCOON:057:1,2009-04-04T05:00:00Z,28.4460,-96.3961,0.0,4.9,116.0,5.6,'11111222,11111222,11111222' 
TCOON,ioos:station:TCOON:057:1,2009-04-04T06:00:00Z,28.4460,-96.3961,0.0,5.7,128.0,6.4,'11111222,11111222,11111222' 
TCOON,ioos:station:TCOON:057:1,2009-04-04T07:00:00Z,28.4460,-96.3961,0.0,5.5,133.0,6.3,'11111222,11111222,11111222' 
TCOON,ioos:station:TCOON:057:1,2009-04-04T08:00:00Z,28.4460,-96.3961,0.0,5.9,147.0,7.1,'11111222,11111222,11111222' 
TCOON,ioos:station:TCOON:057:1,2009-04-04T09:00:00Z,28.4460,-96.3961,0.0,5.3,145.0,6.2,'11111222,11111222,11111222' 
TCOON,ioos:station:TCOON:057:1,2009-04-04T10:00:00Z,28.4460,-96.3961,0.0,4.7,137.0,5.4,'11111222,11111222,11111222' 
TCOON,ioos:station:TCOON:057:1,2009-04-04T11:00:00Z,28.4460,-96.3961,0.0,5.4,138.0,6.0,'11111222,11111222,11111222' 
TCOON,ioos:station:TCOON:057:1,2009-04-04T12:00:00Z,28.4460,-96.3961,0.0,4.6,126.0,5.3,'11111222,11111222,11111222' 
TCOON,ioos:station:TCOON:057:1,2009-04-04T13:00:00Z,28.4460,-96.3961,0.0,4.6,130.0,5.4,'11111222,11111222,11111222' 
TCOON,ioos:station:TCOON:057:1,2009-04-04T14:00:00Z,28.4460,-96.3961,0.0,5.4,140.0,6.2,'11111222,11111222,11111222' 
TCOON,ioos:station:TCOON:057:1,2009-04-04T15:00:00Z,28.4460,-96.3961,0.0,5.4,150.0,6.2,'11111222,11111222,11111222' 
TCOON,ioos:station:TCOON:057:1,2009-04-04T16:00:00Z,28.4460,-96.3961,0.0,5.9,163.0,6.8,'11111222,11111222,11111222' 
TCOON,ioos:station:TCOON:057:1,2009-04-04T17:00:00Z,28.4460,-96.3961,0.0,5.3,161.0,6.2,'11111222,11111222,11111222' 
TCOON,ioos:station:TCOON:057:1,2009-04-04T18:00:00Z,28.4460,-96.3961,0.0,4.4,148.0,5.4,'11111222,11111222,11111222' 
TCOON,ioos:station:TCOON:057:1,2009-04-04T19:00:00Z,28.4460,-96.3961,0.0,4.8,142.0,5.3,'11111222,11111222,11111222' 
TCOON,ioos:station:TCOON:057:1,2009-04-04T20:00:00Z,28.4460,-96.3961,0.0,5.8,133.0,6.4,'11111222,11111222,11111222' 
TCOON,ioos:station:TCOON:057:1,2009-04-04T21:00:00Z,28.4460,-96.3961,0.0,5.3,120.0,5.9,'11111222,11111222,11111222' 
TCOON,ioos:station:TCOON:057:1,2009-04-04T22:00:00Z,28.4460,-96.3961,0.0,5.1,116.0,5.7,'11111222,11111222,11111222' 
TCOON,ioos:station:TCOON:057:1,2009-04-04T23:00:00Z,28.4460,-96.3961,0.0,5.9,109.0,6.6,'11111222,11111222,11111222' 
TCOON,ioos:station:TCOON:057:1,2009-04-05T00:00:00Z,28.4460,-96.3961,0.0,5.7,120.0,6.5,'11111222,11111222,11111222' 
TCOON,ioos:station:TCOON:057:1,2009-04-05T01:00:00Z,28.4460,-96.3961,0.0,5.0,110.0,5.5,'11111222,11111222,11111222' 
TCOON,ioos:station:TCOON:057:1,2009-04-05T02:00:00Z,28.4460,-96.3961,0.0,5.9,112.0,6.8,'11111222,11111222,11111222' 
TCOON,ioos:station:TCOON:057:1,2009-04-05T03:00:00Z,28.4460,-96.3961,0.0,4.3,111.0,4.9,'11111222,11111222,11111222' 
TCOON,ioos:station:TCOON:057:1,2009-04-05T04:00:00Z,28.4460,-96.3961,0.0,4.2,113.0,4.8,'11111222,11111222,11111222' 
TCOON,ioos:station:TCOON:057:1,2009-04-05T05:00:00Z,28.4460,-96.3961,0.0,4.5,110.0,5.1,'11111222,11111222,11111222' 
TCOON,ioos:station:TCOON:057:1,2009-04-05T06:00:00Z,28.4460,-96.3961,0.0,4.1,123.0,5.1,'11111222,11111222,11111222' 
TCOON,ioos:station:TCOON:057:1,2009-04-05T07:00:00Z,28.4460,-96.3961,0.0,4.7,139.0,5.4,'11111222,11111222,11111222' 
TCOON,ioos:station:TCOON:057:1,2009-04-05T08:00:00Z,28.4460,-96.3961,0.0,4.6,144.0,5.3,'11111222,11111222,11111222' 
TCOON,ioos:station:TCOON:057:1,2009-04-05T09:00:00Z,28.4460,-96.3961,0.0,4.3,168.0,5.0,'11111222,11111222,11111222' 
TCOON,ioos:station:TCOON:057:1,2009-04-05T10:00:00Z,28.4460,-96.3961,0.0,6.1,182.0,6.9,'11111222,11111222,11111222' 
TCOON,ioos:station:TCOON:057:1,2009-04-05T11:00:00Z,28.4460,-96.3961,0.0,4.1,196.0,4.8,'11111222,11111222,11111222' 
TCOON,ioos:station:TCOON:057:1,2009-04-05T12:00:00Z,28.4460,-96.3961,0.0,2.6,247.0,3.0,'11111222,11111222,11111222' 
TCOON,ioos:station:TCOON:057:1,2009-04-05T13:00:00Z,28.4460,-96.3961,0.0,5.1,325.0,5.5,'11111222,11111222,11111222' 
TCOON,ioos:station:TCOON:057:1,2009-04-05T14:00:00Z,28.4460,-96.3961,0.0,3.1,313.0,3.5,'11111222,11111222,11111222' 
TCOON,ioos:station:TCOON:057:1,2009-04-05T15:00:00Z,28.4460,-96.3961,0.0,1.2,201.0,1.8,'11111222,11111222,11111222' 
TCOON,ioos:station:TCOON:057:1,2009-04-05T16:00:00Z,28.4460,-96.3961,0.0,3.6,9.0,3.8,'11111222,11111222,11111222' 
TCOON,ioos:station:TCOON:057:1,2009-04-05T17:00:00Z,28.4460,-96.3961,0.0,8.6,349.0,10.9,'11111222,11111222,11111222' 
TCOON,ioos:station:TCOON:057:1,2009-04-05T18:00:00Z,28.4460,-96.3961,0.0,11.7,342.0,13.2,'11111222,11111222,11111222' 
TCOON,ioos:station:TCOON:057:1,2009-04-05T19:00:00Z,28.4460,-96.3961,0.0,13.6,358.0,16.4,'11111222,11111222,11111222' 
TCOON,ioos:station:TCOON:057:1,2009-04-05T20:00:00Z,28.4460,-96.3961,0.0,14.0,355.0,16.1,'11111222,11111222,11111222' 
TCOON,ioos:station:TCOON:057:1,2009-04-05T21:00:00Z,28.4460,-96.3961,0.0,11.8,360.0,13.5,'11111222,11144222,11111222' 
TCOON,ioos:station:TCOON:057:1,2009-04-05T22:00:00Z,28.4460,-96.3961,0.0,10.8,342.0,12.7,'11111222,11111222,11111222' 
TCOON,ioos:station:TCOON:057:1,2009-04-05T23:00:00Z,28.4460,-96.3961,0.0,12.7,349.0,15.3,'11111222,11111222,11111222' 
TCOON,ioos:station:TCOON:057:1,2009-04-06T00:00:00Z,28.4460,-96.3961,0.0,11.8,349.0,14.2,'11111222,11111222,11111222' 
TCOON,ioos:station:TCOON:057:1,2009-04-06T01:00:00Z,28.4460,-96.3961,0.0,10.7,352.0,12.3,'11111222,11111222,11111222' 
TCOON,ioos:station:TCOON:057:1,2009-04-06T02:00:00Z,28.4460,-96.3961,0.0,11.3,353.0,12.8,'11111222,11111222,11111222' 
TCOON,ioos:station:TCOON:057:1,2009-04-06T03:00:00Z,28.4460,-96.3961,0.0,11.9,351.0,13.8,'11111222,11111222,11111222' 
TCOON,ioos:station:TCOON:057:1,2009-04-06T04:00:00Z,28.4460,-96.3961,0.0,10.0,1.0,11.4,'11111222,11111222,11111222' 
TCOON,ioos:station:TCOON:057:1,2009-04-06T05:00:00Z,28.4460,-96.3961,0.0,12.8,354.0,16.6,'11111222,11111222,11111222' 
TCOON,ioos:station:TCOON:057:1,2009-04-06T06:00:00Z,28.4460,-96.3961,0.0,8.9,354.0,10.7,'11111222,11111222,11111222' 
TCOON,ioos:station:TCOON:057:1,2009-04-06T07:00:00Z,28.4460,-96.3961,0.0,10.2,356.0,12.1,'11111222,11111222,11111222' 
TCOON,ioos:station:TCOON:057:1,2009-04-06T08:00:00Z,28.4460,-96.3961,0.0,10.5,358.0,11.9,'11111222,11111222,11111222' 
TCOON,ioos:station:TCOON:057:1,2009-04-06T09:00:00Z,28.4460,-96.3961,0.0,10.7,351.0,12.1,'11111222,11111222,11111222' 
TCOON,ioos:station:TCOON:057:1,2009-04-06T10:00:00Z,28.4460,-96.3961,0.0,12.2,357.0,15.4,'11111222,11111222,11111222' 
TCOON,ioos:station:TCOON:057:1,2009-04-06T11:00:00Z,28.4460,-96.3961,0.0,13.0,349.0,15.7,'11111222,11111222,11111222' 
TCOON,ioos:station:TCOON:057:1,2009-04-06T12:00:00Z,28.4460,-96.3961,0.0,11.3,355.0,13.1,'11111222,11111222,11111222' 
TCOON,ioos:station:TCOON:057:1,2009-04-06T13:00:00Z,28.4460,-96.3961,0.0,13.8,352.0,15.9,'11111222,11111222,11111222' 
TCOON,ioos:station:TCOON:057:1,2009-04-06T14:00:00Z,28.4460,-96.3961,0.0,14.0,355.0,16.7,'11111222,11111222,11111222' 
TCOON,ioos:station:TCOON:057:1,2009-04-06T15:00:00Z,28.4460,-96.3961,0.0,13.6,353.0,15.8,'11111222,11111222,11111222' 
TCOON,ioos:station:TCOON:057:1,2009-04-06T16:00:00Z,28.4460,-96.3961,0.0,11.2,348.0,13.2,'11111222,11111222,11111222' 
TCOON,ioos:station:TCOON:057:1,2009-04-06T17:00:00Z,28.4460,-96.3961,0.0,9.9,346.0,12.5,'11111222,11111222,11111222' 
TCOON,ioos:station:TCOON:057:1,2009-04-06T18:00:00Z,28.4460,-96.3961,0.0,10.0,336.0,11.2,'11111222,11111222,11111222' 
TCOON,ioos:station:TCOON:057:1,2009-04-06T19:00:00Z,28.4460,-96.3961,0.0,10.3,345.0,12.3,'11111222,11111222,11111222' 
TCOON,ioos:station:TCOON:057:1,2009-04-06T20:00:00Z,28.4460,-96.3961,0.0,9.9,345.0,11.0,'11111222,11111222,11111222' 
TCOON,ioos:station:TCOON:057:1,2009-04-06T21:00:00Z,28.4460,-96.3961,0.0,10.0,347.0,11.2,'11111222,11111222,11111222' 
TCOON,ioos:station:TCOON:057:1,2009-04-06T22:00:00Z,28.4460,-96.3961,0.0,10.1,350.0,11.6,'11111222,11111222,11111222' 
TCOON,ioos:station:TCOON:057:1,2009-04-06T23:00:00Z,28.4460,-96.3961,0.0,7.3,328.0,8.6,'11111222,11111222,11111222' 
TCOON,ioos:station:TCOON:057:1,2009-04-07T00:00:00Z,28.4460,-96.3961,0.0,7.6,344.0,9.1,'11111222,11111222,11111222' 
TCOON,ioos:station:TCOON:057:1,2009-04-07T01:00:00Z,28.4460,-96.3961,0.0,8.0,335.0,9.0,'11111222,11111222,11111222' 
TCOON,ioos:station:TCOON:057:1,2009-04-07T02:00:00Z,28.4460,-96.3961,0.0,7.2,334.0,9.1,'11111222,11111222,11111222' 
TCOON,ioos:station:TCOON:057:1,2009-04-07T03:00:00Z,28.4460,-96.3961,0.0,6.2,343.0,6.9,'11111222,11111222,11111222' 
TCOON,ioos:station:TCOON:057:1,2009-04-07T04:00:00Z,28.4460,-96.3961,0.0,7.0,344.0,8.1,'11111222,11111222,11111222' 
TCOON,ioos:station:TCOON:057:1,2009-04-07T05:00:00Z,28.4460,-96.3961,0.0,6.5,348.0,7.3,'11111222,11111222,11111222' 
TCOON,ioos:station:TCOON:057:1,2009-04-07T06:00:00Z,28.4460,-96.3961,0.0,6.2,6.0,6.8,'11111222,11111222,11111222' 
TCOON,ioos:station:TCOON:057:1,2009-04-07T07:00:00Z,28.4460,-96.3961,0.0,3.2,358.0,4.0,'11111222,11111222,11111222' 
TCOON,ioos:station:TCOON:057:1,2009-04-07T08:00:00Z,28.4460,-96.3961,0.0,2.0,265.0,2.2,'11111222,11111222,11111222' 
TCOON,ioos:station:TCOON:057:1,2009-04-07T09:00:00Z,28.4460,-96.3961,0.0,3.1,279.0,3.5,'11111222,11111222,11111222' 
TCOON,ioos:station:TCOON:057:1,2009-04-07T10:00:00Z,28.4460,-96.3961,0.0,2.8,292.0,3.4,'11111222,11111222,11111222' 
TCOON,ioos:station:TCOON:057:1,2009-04-07T11:00:00Z,28.4460,-96.3961,0.0,2.9,304.0,3.3,'11111222,11111222,11111222' 
TCOON,ioos:station:TCOON:057:1,2009-04-07T12:00:00Z,28.4460,-96.3961,0.0,3.3,306.0,3.9,'11111222,11111222,11111222' 
TCOON,ioos:station:TCOON:057:1,2009-04-07T13:00:00Z,28.4460,-96.3961,0.0,4.9,355.0,5.4,'11111222,11111222,11111222' 
TCOON,ioos:station:TCOON:057:1,2009-04-07T14:00:00Z,28.4460,-96.3961,0.0,2.8,1.0,3.7,'11111222,11111222,11111222' 
TCOON,ioos:station:TCOON:057:1,2009-04-07T15:00:00Z,28.4460,-96.3961,0.0,2.5,9.0,3.2,'11111222,11111222,11111222' 
TCOON,ioos:station:TCOON:057:1,2009-04-07T16:00:00Z,28.4460,-96.3961,0.0,2.4,36.0,3.1,'11111222,11111222,11111222' 
TCOON,ioos:station:TCOON:057:1,2009-04-07T17:00:00Z,28.4460,-96.3961,0.0,2.9,56.0,3.3,'11111222,11111222,11111222' 
TCOON,ioos:station:TCOON:057:1,2009-04-07T18:00:00Z,28.4460,-96.3961,0.0,2.4,198.0,3.2,'11111222,11111222,11111222' 
TCOON,ioos:station:TCOON:057:1,2009-04-07T19:00:00Z,28.4460,-96.3961,0.0,3.1,112.0,3.7,'11111222,11111222,11111222' 
TCOON,ioos:station:TCOON:057:1,2009-04-07T20:00:00Z,28.4460,-96.3961,0.0,5.4,157.0,6.2,'11111222,11111222,11111222' 
TCOON,ioos:station:TCOON:057:1,2009-04-07T21:00:00Z,28.4460,-96.3961,0.0,6.2,164.0,6.8,'11111222,11111222,11111222' 
TCOON,ioos:station:TCOON:057:1,2009-04-07T22:00:00Z,28.4460,-96.3961,0.0,4.7,162.0,5.3,'11111222,11111222,11111222' 
TCOON,ioos:station:TCOON:057:1,2009-04-08T01:00:00Z,28.4460,-96.3961,0.0,6.0,194.0,7.0,'11111222,11111222,11111222' 
TCOON,ioos:station:TCOON:057:1,2009-04-08T02:00:00Z,28.4460,-96.3961,0.0,6.5,191.0,7.9,'11111222,11111222,11111222' 
TCOON,ioos:station:TCOON:057:1,2009-04-08T03:00:00Z,28.4460,-96.3961,0.0,6.7,190.0,7.9,'11111222,11111222,11111222' 
TCOON,ioos:station:TCOON:057:1,2009-04-08T04:00:00Z,28.4460,-96.3961,0.0,7.1,188.0,8.0,'11111222,11111222,11111222' 
TCOON,ioos:station:TCOON:057:1,2009-04-08T05:00:00Z,28.4460,-96.3961,0.0,6.5,191.0,7.7,'11111222,11111222,11111222' 
TCOON,ioos:station:TCOON:057:1,2009-04-08T06:00:00Z,28.4460,-96.3961,0.0,7.1,191.0,8.1,'11111222,11111222,11111222' 
TCOON,ioos:station:TCOON:057:1,2009-04-08T07:00:00Z,28.4460,-96.3961,0.0,6.5,195.0,8.2,'11111222,11111222,11111222' 
TCOON,ioos:station:TCOON:057:1,2009-04-08T08:00:00Z,28.4460,-96.3961,0.0,7.3,196.0,8.7,'11111222,11111222,11111222' 
TCOON,ioos:station:TCOON:057:1,2009-04-08T09:00:00Z,28.4460,-96.3961,0.0,6.1,200.0,7.5,'11111222,11111222,11111222' 
TCOON,ioos:station:TCOON:057:1,2009-04-08T10:00:00Z,28.4460,-96.3961,0.0,5.5,206.0,6.5,'11111222,11111222,11111222' 
TCOON,ioos:station:TCOON:057:1,2009-04-08T11:00:00Z,28.4460,-96.3961,0.0,5.5,204.0,6.5,'11111222,11111222,11111222' 
TCOON,ioos:station:TCOON:057:1,2009-04-08T12:00:00Z,28.4460,-96.3961,0.0,5.6,198.0,6.7,'11111222,11111222,11111222' 
TCOON,ioos:station:TCOON:057:1,2009-04-08T13:00:00Z,28.4460,-96.3961,0.0,5.5,195.0,6.5,'11111222,11111222,11111222' 
TCOON,ioos:station:TCOON:057:1,2009-04-08T14:00:00Z,28.4460,-96.3961,0.0,8.4,203.0,10.9,'11111222,11111222,11111222' 
TCOON,ioos:station:TCOON:057:1,2009-04-09T14:00:00Z,28.4460,-96.3961,0.0,7.5,169.0,8.6,'11111222,11111222,11111222' 
TCOON,ioos:station:TCOON:057:1,2009-04-09T15:00:00Z,28.4460,-96.3961,0.0,8.8,175.0,10.2,'11111222,11111222,11111222' 
TCOON,ioos:station:TCOON:057:1,2009-04-09T16:00:00Z,28.4460,-96.3961,0.0,9.2,182.0,10.5,'11111222,11111222,11111222' 
TCOON,ioos:station:TCOON:057:1,2009-04-09T17:00:00Z,28.4460,-96.3961,0.0,10.6,176.0,12.1,'11111222,11111222,11111222' 
TCOON,ioos:station:TCOON:057:1,2009-04-09T18:00:00Z,28.4460,-96.3961,0.0,9.2,178.0,10.9,'11111222,11111222,11111222' 
TCOON,ioos:station:TCOON:057:1,2009-04-09T19:00:00Z,28.4460,-96.3961,0.0,7.6,175.0,8.9,'11111222,11111222,11111222' 
TCOON,ioos:station:TCOON:057:1,2009-04-09T20:00:00Z,28.4460,-96.3961,0.0,6.8,169.0,8.1,'11111222,11111222,11111222' 
TCOON,ioos:station:TCOON:057:1,2009-04-09T21:00:00Z,28.4460,-96.3961,0.0,8.0,164.0,9.2,'11111222,11111222,11111222' 
TCOON,ioos:station:TCOON:057:1,2009-04-09T22:00:00Z,28.4460,-96.3961,0.0,7.8,166.0,8.9,'11111222,11111222,11111222' 
TCOON,ioos:station:TCOON:057:1,2009-04-09T23:00:00Z,28.4460,-96.3961,0.0,7.9,152.0,9.2,'11111222,11111222,11111222' 
TCOON,ioos:station:TCOON:057:1,2009-04-10T00:00:00Z,28.4460,-96.3961,0.0,7.6,153.0,9.0,'11111222,11111222,11111222' 
TCOON,ioos:station:TCOON:057:1,2009-04-10T01:00:00Z,28.4460,-96.3961,0.0,7.6,166.0,9.0,'11111222,11111222,11111222' 
TCOON,ioos:station:TCOON:057:1,2009-04-10T02:00:00Z,28.4460,-96.3961,0.0,10.7,168.0,12.7,'11111222,11111222,11111222' 
TCOON,ioos:station:TCOON:057:1,2009-04-10T03:00:00Z,28.4460,-96.3961,0.0,11.4,175.0,13.6,'11111222,11111222,11111222' 
TCOON,ioos:station:TCOON:057:1,2009-04-10T04:00:00Z,28.4460,-96.3961,0.0,10.7,185.0,12.1,'11111222,11111222,11111222' 
TCOON,ioos:station:TCOON:057:1,2009-04-10T05:00:00Z,28.4460,-96.3961,0.0,8.6,191.0,10.3,'11111222,11111222,11111222' 
TCOON,ioos:station:TCOON:057:1,2009-04-10T06:00:00Z,28.4460,-96.3961,0.0,4.8,183.0,6.6,'11111222,11111222,11111222' 
TCOON,ioos:station:TCOON:057:1,2009-04-10T07:00:00Z,28.4460,-96.3961,0.0,2.9,198.0,4.7,'11111222,11111222,11111222' 
TCOON,ioos:station:TCOON:057:1,2009-04-10T08:00:00Z,28.4460,-96.3961,0.0,3.9,197.0,4.5,'11111222,11111222,11111222' 
TCOON,ioos:station:TCOON:057:1,2009-04-10T09:00:00Z,28.4460,-96.3961,0.0,4.8,188.0,5.2,'11111222,11111222,11111222' 
TCOON,ioos:station:TCOON:057:1,2009-04-10T10:00:00Z,28.4460,-96.3961,0.0,3.9,191.0,4.6,'11111222,11111222,11111222' 
TCOON,ioos:station:TCOON:057:1,2009-04-10T11:00:00Z,28.4460,-96.3961,0.0,2.3,178.0,2.5,'11111222,11111222,11111222' 
TCOON,ioos:station:TCOON:057:1,2009-04-10T12:00:00Z,28.4460,-96.3961,0.0,0.8,68.0,0.8,'11111222,11111222,11111222' 